Home   Weather   Macapá   Past weeks

Flag for Brazil Past Weather in Macapá, Amapá, Brazil — Yesterday and Last 2 Weeks

Now
86 °F

Clear.


Feels Like: 95 °F
Forecast: N/A
Wind: 12 mph from Northeast

Location: Macapa Airport

Current Time: Sep 26, 2016 at 7:31:53 PM

Latest Report: Sep 26, 2016 at 7:00 PM


Visibility: 10 mi

Pressure: 29.80 "Hg

Humidity: 70%

Dew Point: 75 °F

Location of MacapáLocation

Past Weather in Macapá — Graph

°F

Macapá Temperature Yesterday

Maximum temperature yesterday: 97 °F (at 2:00 PM)
Minimum temperature yesterday: 75 °F (at 6:00 AM)
Average temperature yesterday: 87 °F

High & Low Weather Summary for the Past Weeks

 TemperatureHumidityPressure
High97 °F (Sep 12, 2:00 PM)100% (Sep 12, 5:00 AM)30.01 "Hg (Sep 12, 5:00 AM)
Low75 °F (Sep 13, 5:00 AM)42% (Sep 14, 2:00 PM)29.77 "Hg (Sep 26, 4:00 PM)
Average86 °F71%29.89 "Hg
* Reported Sep 11 6:00 PM — Sep 26 6:00 PM, Macapá, Weather by CustomWeather, © 2016

Note: Actual official high and low records may vary slightly from our data, if they occured in-between our weather recording intervals... More about our weather records

Advertising

Macapá Weather History for the Previous 24 Hours

Scroll right to see more
 ConditionsComfort  
Time TempWeatherWind HumidityBarometerVisibility
6:00 PM
Mon, Sep 26
88 °FPassing clouds.12 mph66%29.80 "HgN/A
5:00 PM91 °FPassing clouds.13 mph59%29.77 "HgN/A
4:00 PM93 °FPassing clouds.13 mph53%29.77 "HgN/A
3:00 PM95 °FPassing clouds.9 mph47%29.80 "HgN/A
2:00 PM95 °FPassing clouds.12 mph47%29.83 "HgN/A
1:00 PM93 °FPassing clouds.10 mph53%29.86 "HgN/A
12:00 PM93 °FScattered clouds.7 mph49%29.89 "HgN/A
11:00 AM93 °FScattered clouds.12 mph49%29.92 "HgN/A
10:00 AM91 °FScattered clouds.8 mph52%29.95 "HgN/A
9:00 AM88 °FPassing clouds.10 mph62%29.95 "HgN/A
8:00 AM84 °FSunny.7 mph70%29.92 "Hg10 mi
7:00 AM79 °FSunny.5 mph89%29.89 "Hg10 mi
6:00 AM77 °FClear.5 mph94%29.86 "Hg10 mi
5:00 AM77 °FClear.5 mph94%29.86 "Hg10 mi
4:00 AM77 °FClear.6 mph94%29.86 "Hg10 mi
3:00 AM79 °FClear.3 mph89%29.86 "Hg10 mi
2:00 AM79 °FClear.5 mph89%29.86 "Hg10 mi
1:00 AM79 °FClear.6 mph89%29.89 "Hg10 mi
12:00 AM81 °FPassing clouds.6 mph84%29.92 "HgN/A
11:00 PM
Sun, Sep 25
82 °FPassing clouds.7 mph79%29.92 "HgN/A
10:00 PM84 °FClear.12 mph70%29.89 "Hg10 mi
9:00 PM84 °FClear.10 mph70%29.89 "Hg10 mi
8:00 PM84 °FPassing clouds.12 mph70%29.86 "HgN/A
7:00 PM86 °FPassing clouds.13 mph70%29.83 "HgN/A
Weather by CustomWeather, © 2016

See weather overviewHow to use our weather pages